Wind_Speed
11 11 10 10 9 7 6 5 5 4 4 3 3 2 2 2 2 2 2 2 2 2 2 2 2 3 3 3 3 3 3 3 3 3 3 4 5 6 6 6 7 7 8
13 12 12 10 10 9 8 7 6 6 5 5 4 3 2 1 1 0 0 1 1 1 1 1 2 2 3 3 3 3 4 4 4 5 5 5 6 7 7 8 9 9 10
14 14 13 12 11 11 10 9 8 7 7 6 5 4 4 3 2 2 2 1 1 1 1 1 2 2 3 3 3 4 5 5 6 6 7 8 8 9 10 10 11 11 12
15 15 14 13 13 12 11 11 10 9 8 8 7 6 5 4 4 3 3 3 3 3 2 2 3 3 4 4 4 5 6 7 7 8 9 10 11 11 12 13 13 13 14
16 16 15 15 14 14 13 12 11 10 9 9 8 8 7 6 5 5 5 4 4 4 4 4 5 5 5 5 6 6 7 8 9 10 11 12 12 13 14 14 15 16 16
17 16 16 16 15 15 15 14 12 11 10 9 9 9 8 8 7 7 6 6 6 6 6 6 6 7 7 7 8 8 9 9 10 11 12 13 14 15 16 16 17 18 19
18 18 17 16 16 16 15 15 14 13 12 12 11 11 10 9 9 9 8 8 8 8 8 8 8 8 9 9 10 10 11 11 12 13 14 15 16 17 18 19 19 20 21
19 18 18 17 17 17 16 17 16 15 15 14 13 13 12 12 11 10 10 10 10 10 10 10 10 10 11 11 12 12 13 14 15 16 17 17 18 19 20 21 21 22 23
20 19 19 19 18 17 17 17 17 16 16 15 15 14 14 14 13 12 12 12 11 12 12 12 12 13 13 14 14 15 15 16 17 18 19 20 21 22 23 23 23 24 26
19 20 20 20 19 18 18 18 18 17 17 17 16 16 16 16 15 15 15 14 14 14 14 14 15 15 15 16 16 17 17 18 19 20 21 22 23 24 25 25 26 26 28
18 19 20 19 19 19 19 20 19 18 18 18 18 18 18 17 17 16 16 16 16 16 16 16 16 17 17 18 18 18 19 20 21 22 23 24 25 26 27 28 28 29 30
18 19 20 20 19 18 18 18 19 19 19 19 19 19 18 18 18 18 17 17 18 18 18 18 18 19 19 19 20 20 21 22 23 24 25 26 27 28 29 30 31 31 32
18 19 19 20 19 19 18 18 19 19 19 19 20 20 20 20 20 19 20 20 19 19 20 20 20 21 22 22 22 23 24 25 26 26 27 28 29 30 31 32 33 34 34
19 19 19 19 20 19 19 19 20 20 20 20 20 21 22 22 22 21 21 22 21 21 21 21 22 23 23 23 24 25 26 27 28 28 29 31 32 32 33 34 35 35 35
20 20 20 20 21 21 20 20 20 21 21 21 21 22 22 23 23 23 23 23 22 22 23 23 24 24 25 25 26 27 28 29 30 31 32 33 34 35 36 36 37 37 38
21 21 21 22 22 22 22 22 22 22 22 22 22 23 23 24 24 24 24 24 24 25 25 25 26 27 27 28 29 30 31 31 32 33 34 35 36 37 38 38 39 39 40
21 21 21 21 22 22 22 22 22 22 22 22 24 24 24 24 25 25 26 26 27 27 27 28 28 29 30 31 31 32 32 33 34 35 36 37 38 39 39 40 40 40 41
20 20 21 21 22 22 22 22 23 23 23 23 24 24 24 24 25 26 26 27 28 29 29 30 31 31 32 33 33 34 34 35 35 36 37 38 39 40 40 41 42 43 44
19 20 20 21 21 22 23 23 24 24 25 25 25 25 25 25 26 27 28 28 29 30 31 32 33 33 34 34 35 35 36 36 37 38 39 40 41 42 43 44 44 45 46
20 20 20 21 21 22 23 23 24 25 25 25 25 26 26 26 27 28 29 29 30 31 32 33 33 34 34 35 35 36 37 37 38 39 40 42 43 45 45 46 47 48 49
20 20 21 22 22 22 22 23 23 23 24 25 25 26 27 27 28 29 29 30 30 31 32 33 34 35 35 36 37 38 39 39 40 42 43 44 45 46 47 48 49 50 52
21 21 21 22 22 23 24 24 24 24 25 26 27 28 29 29 29 30 31 31 32 33 34 34 35 36 37 38 39 39 40 41 43 44 45 46 47 48 49 50 51 52 54
21 22 23 23 24 24 24 25 25 26 27 27 28 28 29 29 30 30 31 32 34 34 35 36 37 38 38 39 40 41 42 43 45 46 46 47 49 50 51 52 53 54 54
22 23 24 24 24 25 25 26 27 28 29 29 30 30 30 31 31 32 33 34 35 36 37 37 38 39 40 41 41 42 44 45 46 47 48 50 50 51 52 53 53 54 55
24 24 24 25 25 26 27 27 28 29 30 30 31 32 32 33 34 35 36 36 37 38 39 40 40 40 41 42 43 44 46 47 48 49 50 51 51 52 52 53 54 55 56
25 25 26 27 27 28 28 28 29 30 30 31 32 33 33 34 36 37 38 38 38 39 40 40 41 42 43 44 45 46 47 48 49 50 51 52 52 53 53 54 55 56 56
Wind_Direction
210 207 201 199 202 205 203 201 200 194 187 185 177 163 141 120 106 91 85 87 90 83 77 59 42 27 25 23 17 3 2 3 4 355 344 339 337 339 339 332 324 320 319
214 210 207 204 204 206 207 209 211 209 209 209 203 199 188 179 168 161 121 79 82 76 31 12 8 5 2 355 346 336 334 334 333 331 327 323 324 327 327 326 325 323 320
216 212 209 208 209 211 213 213 215 215 214 215 217 218 221 226 228 232 240 237 236 267 283 303 333 337 334 331 329 324 321 320 320 321 320 320 323 323 321 321 321 320 319
217 215 214 213 215 215 216 218 220 221 223 222 222 225 230 234 238 242 241 246 251 256 268 280 300 306 309 313 314 316 318 319 320 321 322 321 322 321 320 320 318 317 315
220 219 220 221 221 221 219 221 225 227 229 229 229 229 232 233 238 241 245 253 257 263 270 277 285 290 293 297 299 302 306 311 313 316 317 317 317 316 316 316 314 313 313
222 221 223 224 224 224 224 224 226 227 228 230 231 231 234 233 236 241 248 254 259 264 271 277 283 286 290 293 297 299 302 306 308 310 312 312 313 312 313 313 311 312 312
224 224 226 226 226 225 227 227 228 230 232 234 235 234 235 237 240 243 249 256 260 265 273 279 283 286 289 293 295 297 301 304 306 307 308 309 309 309 310 309 309 311 312
227 228 227 228 228 229 230 230 231 233 234 235 236 238 239 240 240 244 253 260 264 269 275 281 283 284 287 291 293 293 295 299 301 303 305 306 307 307 308 307 307 308 309
228 227 230 231 231 232 232 233 234 236 236 237 237 239 241 243 244 247 254 260 265 269 272 277 281 283 287 290 291 292 294 296 298 301 303 305 305 306 306 305 306 306 306
231 230 231 232 231 232 234 236 237 238 237 237 239 240 242 246 248 250 254 258 263 267 271 275 278 282 285 288 289 291 293 295 297 299 302 304 305 305 304 304 305 306 306
232 231 231 232 232 233 236 238 238 240 239 238 240 243 246 249 252 254 256 260 265 270 274 276 278 281 284 287 289 291 294 296 297 299 302 303 304 304 303 303 304 305 306
232 234 232 231 233 235 237 236 237 240 240 239 242 246 248 251 253 257 260 264 268 271 274 276 278 282 285 288 289 291 294 296 297 298 300 302 303 305 304 304 304 305 305
233 233 234 232 232 235 237 239 240 242 244 245 245 247 250 252 255 258 263 266 268 271 273 276 278 281 284 286 288 290 292 295 296 297 299 301 302 304 305 304 304 304 305
235 234 234 233 235 237 240 241 242 244 247 248 249 250 251 253 256 259 263 266 268 271 272 275 278 281 283 285 288 290 292 294 295 296 298 300 301 302 303 303 303 303 303
235 235 235 235 237 240 242 244 245 246 248 250 252 253 255 256 258 261 264 266 269 272 275 277 279 282 284 286 289 291 293 294 295 296 298 299 300 301 303 303 303 302 303
237 237 237 237 239 242 244 245 247 249 250 252 254 255 257 258 260 263 265 266 269 271 273 276 279 281 283 286 289 291 293 294 295 296 297 298 299 300 301 302 303 302 302
238 238 240 240 240 242 244 245 247 250 252 255 257 256 258 259 261 263 265 268 271 272 274 277 280 283 285 288 290 291 293 294 295 296 297 299 300 301 301 302 302 302 302
238 237 240 241 242 243 245 247 249 252 253 256 259 258 259 262 263 265 267 270 272 275 277 279 281 284 286 288 290 292 293 294 295 295 297 298 299 300 301 301 301 302 302
238 238 241 243 243 245 248 250 251 254 256 259 261 262 263 265 267 268 269 271 273 275 278 280 283 284 286 289 290 292 293 293 294 295 297 298 299 300 300 301 301 302 303
239 240 244 246 247 249 251 253 255 257 261 263 264 265 265 267 269 271 272 274 276 278 280 282 284 285 287 289 291 292 293 294 295 296 297 298 299 299 300 300 301 302 302
244 248 251 250 252 254 255 257 259 261 262 264 267 268 269 270 271 273 275 277 279 280 281 283 284 287 288 290 291 292 293 294 295 297 298 299 300 300 300 300 301 302 302
248 250 253 255 256 256 258 260 263 264 265 266 268 270 272 272 273 275 276 278 279 281 283 285 286 288 289 290 291 292 293 294 296 297 298 299 300 300 301 301 301 302 303
250 252 254 255 257 257 259 262 264 267 268 269 271 273 274 274 275 276 278 279 281 283 284 286 287 288 289 290 291 292 293 295 296 297 298 299 300 301 301 301 302 302 303
255 255 256 257 259 260 262 265 266 268 270 271 272 273 274 275 276 278 279 281 283 284 286 287 288 289 289 290 291 292 294 295 296 297 298 299 300 301 301 302 302 303 304
258 259 259 260 262 265 266 267 269 271 272 273 273 274 275 277 278 280 281 282 284 286 287 288 289 290 290 291 292 293 294 295 296 298 298 299 300 301 301 302 302 303 304
260 261 262 264 266 267 269 269 270 271 272 274 275 276 277 278 281 282 282 283 284 285 287 288 289 290 291 292 293 294 294 295 296 297 298 299 300 301 301 302 302 303 304
Height
5868 5869 5871 5872 5874 5875 5876 5877 5877 5878 5878 5878 5878 5879 5878 5878 5878 5878 5878 5878 5878 5878 5878 5877 5877 5877 5876 5875 5875 5874 5873 5873 5872 5871 5870 5869 5867 5866 5865 5863 5862 5861 5859
5866 5868 5869 5871 5872 5873 5875 5875 5876 5877 5877 5877 5878 5878 5878 5878 5878 5878 5878 5878 5878 5878 5878 5877 5877 5877 5876 5875 5875 5874 5873 5872 5872 5870 5869 5868 5867 5865 5864 5862 5860 5859 5857
5864 5865 5867 5869 5870 5872 5873 5874 5875 5875 5876 5876 5877 5877 5877 5877 5877 5877 5877 5878 5878 5877 5877 5877 5877 5876 5876 5875 5874 5874 5873 5871 5870 5869 5868 5867 5865 5864 5862 5860 5858 5856 5854
5861 5863 5865 5866 5868 5870 5871 5872 5873 5874 5875 5875 5876 5876 5876 5876 5877 5877 5877 5877 5877 5877 5877 5877 5876 5876 5875 5874 5874 5873 5872 5871 5869 5868 5867 5865 5863 5861 5860 5858 5856 5854 5851
5858 5860 5862 5864 5865 5867 5868 5870 5871 5872 5873 5873 5874 5874 5875 5875 5875 5876 5876 5876 5876 5876 5876 5875 5875 5874 5874 5873 5872 5871 5870 5869 5868 5866 5865 5863 5861 5859 5857 5855 5853 5850 5848
5855 5857 5859 5861 5862 5864 5866 5867 5868 5869 5870 5871 5872 5873 5873 5873 5874 5874 5874 5874 5874 5874 5874 5874 5873 5873 5872 5871 5870 5869 5868 5867 5866 5864 5862 5861 5859 5856 5854 5851 5849 5847 5844
5852 5854 5856 5857 5859 5861 5862 5864 5865 5866 5868 5869 5869 5870 5870 5871 5872 5872 5872 5872 5872 5872 5872 5872 5871 5870 5870 5869 5868 5867 5865 5864 5863 5861 5859 5857 5855 5853 5850 5847 5845 5842 5839
5848 5850 5852 5854 5856 5857 5859 5860 5862 5863 5864 5865 5867 5867 5868 5868 5869 5869 5870 5870 5870 5870 5869 5869 5868 5868 5867 5866 5865 5864 5862 5861 5859 5857 5855 5853 5851 5848 5846 5843 5840 5837 5833
5844 5846 5848 5850 5852 5853 5855 5857 5858 5859 5860 5862 5863 5864 5864 5865 5866 5866 5867 5867 5867 5867 5866 5866 5865 5865 5864 5863 5862 5860 5859 5857 5855 5853 5851 5848 5846 5843 5840 5838 5835 5832 5828
5840 5841 5844 5845 5847 5849 5851 5852 5854 5855 5857 5858 5859 5860 5861 5861 5862 5863 5863 5863 5863 5863 5863 5862 5862 5861 5860 5858 5857 5856 5854 5852 5851 5849 5846 5844 5841 5838 5835 5832 5829 5826 5822
5835 5837 5839 5841 5843 5844 5846 5848 5849 5851 5852 5853 5855 5856 5856 5857 5858 5858 5859 5859 5859 5859 5858 5858 5857 5856 5855 5854 5853 5851 5850 5848 5845 5843 5841 5838 5835 5832 5829 5825 5822 5818 5815
5831 5832 5834 5836 5838 5840 5842 5843 5845 5847 5848 5849 5850 5851 5852 5853 5853 5854 5854 5854 5854 5854 5854 5853 5852 5851 5850 5849 5847 5846 5844 5842 5840 5838 5835 5832 5829 5826 5822 5818 5815 5811 5807
5826 5828 5830 5832 5834 5836 5838 5839 5841 5842 5844 5845 5846 5847 5847 5848 5849 5849 5849 5849 5849 5849 5848 5847 5847 5846 5844 5843 5842 5840 5838 5836 5834 5831 5829 5826 5822 5819 5815 5811 5807 5803 5799
5822 5824 5826 5827 5829 5831 5833 5834 5836 5837 5839 5840 5841 5841 5842 5843 5843 5844 5844 5844 5843 5843 5842 5842 5841 5840 5838 5837 5835 5833 5831 5829 5827 5824 5822 5818 5815 5811 5808 5803 5799 5795 5791
5818 5819 5821 5823 5825 5826 5828 5830 5831 5832 5833 5834 5835 5836 5836 5837 5838 5838 5838 5838 5837 5837 5836 5835 5834 5833 5832 5830 5828 5826 5824 5822 5819 5816 5813 5810 5807 5803 5799 5795 5790 5786 5782
5812 5814 5816 5818 5820 5822 5823 5824 5825 5827 5828 5828 5829 5830 5831 5831 5831 5832 5832 5831 5831 5831 5830 5829 5828 5826 5825 5823 5821 5819 5816 5814 5811 5808 5805 5801 5798 5794 5790 5786 5781 5777 5773
5807 5809 5810 5812 5814 5816 5817 5819 5820 5821 5822 5823 5823 5824 5824 5824 5824 5824 5824 5824 5824 5823 5823 5821 5820 5819 5817 5815 5813 5810 5808 5805 5802 5799 5796 5792 5788 5784 5780 5776 5771 5767 5762
5801 5803 5805 5806 5808 5810 5812 5813 5814 5815 5816 5816 5817 5817 5817 5817 5817 5817 5817 5817 5816 5815 5814 5813 5812 5810 5808 5806 5804 5801 5798 5795 5792 5789 5786 5782 5778 5774 5769 5765 5760 5756 5751
5796 5798 5799 5801 5802 5804 5805 5806 5808 5809 5809 5810 5810 5810 5810 5810 5810 5810 5810 5809 5808 5807 5806 5804 5803 5801 5799 5796 5794 5791 5788 5785 5782 5779 5775 5771 5767 5763 5758 5754 5749 5744 5739
5791 5792 5794 5795 5796 5798 5799 5800 5801 5802 5802 5803 5803 5803 5803 5803 5803 5802 5801 5801 5800 5798 5797 5795 5793 5791 5789 5787 5784 5781 5778 5775 5772 5768 5764 5760 5756 5751 5746 5741 5736 5731 5726
5785 5786 5788 5789 5790 5791 5792 5793 5794 5794 5795 5795 5795 5795 5795 5795 5794 5793 5793 5791 5790 5789 5787 5786 5784 5781 5779 5776 5773 5770 5767 5764 5760 5757 5752 5748 5743 5738 5733 5728 5723 5717 5711
5779 5781 5782 5783 5784 5785 5786 5786 5787 5787 5787 5787 5787 5787 5786 5786 5785 5784 5783 5782 5781 5779 5777 5775 5773 5771 5768 5765 5762 5759 5756 5752 5748 5744 5740 5735 5730 5725 5720 5715 5709 5703 5697
5773 5774 5776 5776 5777 5778 5778 5779 5779 5779 5779 5779 5779 5778 5777 5777 5776 5775 5774 5772 5771 5769 5767 5764 5762 5759 5756 5753 5750 5747 5744 5740 5736 5731 5727 5722 5717 5712 5706 5700 5694 5688 5682
5766 5767 5768 5769 5770 5770 5771 5771 5771 5771 5771 5770 5770 5769 5768 5768 5766 5765 5764 5762 5760 5758 5756 5753 5750 5748 5745 5741 5738 5735 5731 5727 5722 5718 5713 5708 5703 5698 5692 5686 5680 5673 5667
5759 5760 5761 5762 5762 5762 5762 5762 5762 5762 5762 5761 5761 5760 5759 5758 5756 5755 5753 5751 5749 5746 5744 5741 5738 5735 5732 5729 5725 5721 5717 5713 5709 5704 5699 5694 5689 5683 5677 5671 5665 5659 5652
5751 5752 5752 5753 5753 5754 5754 5753 5753 5753 5752 5752 5751 5749 5748 5747 5745 5743 5741 5739 5737 5734 5732 5729 5726 5723 5719 5716 5712 5708 5704 5699 5694 5689 5684 5679 5674 5668 5662 5656 5650 5643 5637